Location: Newark
(25.0000°N, 73.5000°E)
Time: 07:15:53
(UTC+00:00)

Tiangong - Pass Details

Date: 01 July 2021
Orbit: 374 x 386 km, 41.5° (Epoch: 28 July)

Event Time Altitude Azimuth Distance (km) Brightness Sun altitude
Rises 16:20:51 0° 258° (WSW) 2,215 5.3 -26.8°
Reaches altitude 10° 16:23:08 10° 273° (W) 1,366 4.4 -27.2°
Enters shadow 16:23:27 12° 277° (W) 1,261 4.2 -27.2°
